Overview Statistics Trail Chart Weather Telemetry Raw packets
 

This is the latest recevied weather packets stored in our database for station/object KLEMETTI. If no packets are shown the sender has not sent any weather packets the latest 10 day(s).

<< 6 7 8 9 10 11 12 >>
Time Temp. Humidity Pressure Rain* Wind** Luminosity Snow
1788373480 15.56° C 78% 1003.9 hPa 0 mm - - -
1788372280 15.56° C 77% 1004 hPa 0 mm - - -
1788371081 15.56° C 77% 1004 hPa 0 mm - - -
1788369879 15.56° C 77% 1004.1 hPa 0 mm - - -
1788368682 16.11° C 79% 1004.2 hPa 0 mm - - -
1788367481 17.22° C 78% 1004.2 hPa 0 mm - - -
1788366281 17.78° C 78% 1004.1 hPa 0 mm - - -
1788365080 18.33° C 76% 1004.2 hPa 0 mm - - -
1788363880 19.44° C 70% 1004.1 hPa 0 mm - - -
1788362679 20° C 66% 1004.2 hPa 0 mm - - -
1788361481 20° C 63% 1004.4 hPa 0 mm - - -
1788360278 20.56° C 57% 1004.3 hPa 0 mm - - -
1788359080 20.56° C 55% 1004.3 hPa 0 mm - - -
1788357880 20.56° C 54% 1004.5 hPa 0 mm - - -
1788356679 20° C 54% 1004.7 hPa 0 mm - - -
1788355269 20.56° C 52% 1004.8 hPa 0 mm - - -
1788354279 20° C 52% 1005 hPa 0 mm - - -
1788351878 20° C 50% 1005.2 hPa 0 mm - - -
1788350477 19.44° C 50% 1005.4 hPa 0 mm - - -
1788349479 18.89° C 53% 1005.5 hPa 0 mm - - -
1788348280 19.44° C 47% 1005.6 hPa 0 mm - - -
1788345879 18.33° C 56% 1005.7 hPa 0 mm - - -
1788344679 17.78° C 56% 1005.7 hPa 0 mm - - -
1788342278 18.33° C 56% 1005.8 hPa 0 mm - - -
1788341079 17.78° C 58% 1005.9 hPa 0 mm - - -

* Rain latest hour (hover to see other rain measurements)
** Current wind speed in m/s (hover to see current wind gust speed)